Year,Month,Day,Hour,Minute,Value (Times are PST for temperature in C)
2016,05,25,00,00,12.60
2016,05,25,00,01,12.60
2016,05,25,00,02,12.60
2016,05,25,00,03,12.60
2016,05,25,00,04,12.60
2016,05,25,00,05,12.50
2016,05,25,00,06,12.50
2016,05,25,00,07,12.50
2016,05,25,00,08,12.50
2016,05,25,00,09,12.50
2016,05,25,00,10,12.40
2016,05,25,00,11,12.40
2016,05,25,00,12,12.40
2016,05,25,00,13,12.40
2016,05,25,00,14,12.40
2016,05,25,00,15,12.40
2016,05,25,00,16,12.40
2016,05,25,00,17,12.40
2016,05,25,00,18,12.40
2016,05,25,00,19,12.40
2016,05,25,00,20,12.40
2016,05,25,00,21,12.40
2016,05,25,00,22,12.40
2016,05,25,00,23,12.50
2016,05,25,00,24,12.50
2016,05,25,00,25,12.50
2016,05,25,00,26,12.50
2016,05,25,00,27,12.50
2016,05,25,00,28,12.50
2016,05,25,00,29,12.50
2016,05,25,00,30,12.50
2016,05,25,00,31,12.50
2016,05,25,00,32,12.50
2016,05,25,00,33,12.50
2016,05,25,00,34,12.50
2016,05,25,00,35,12.50
2016,05,25,00,36,12.50
2016,05,25,00,37,12.50
2016,05,25,00,38,12.50
2016,05,25,00,39,12.50
2016,05,25,00,40,12.50
2016,05,25,00,41,12.60
2016,05,25,00,42,12.60
2016,05,25,00,43,12.50
2016,05,25,00,44,12.50
2016,05,25,00,45,12.50
2016,05,25,00,46,12.50
2016,05,25,00,47,12.50
2016,05,25,00,48,12.40
2016,05,25,00,49,12.40
2016,05,25,00,50,12.40
2016,05,25,00,51,12.40
2016,05,25,00,52,12.40
2016,05,25,00,53,12.30
2016,05,25,00,54,12.30
2016,05,25,00,55,12.30
2016,05,25,00,56,12.30
2016,05,25,00,57,12.30
2016,05,25,00,58,12.30
2016,05,25,00,59,12.30
2016,05,25,01,00,12.30
2016,05,25,01,01,12.30
2016,05,25,01,02,12.30
2016,05,25,01,03,12.30
2016,05,25,01,04,12.30
2016,05,25,01,05,12.30
2016,05,25,01,06,12.30
2016,05,25,01,07,12.30
2016,05,25,01,08,12.30
2016,05,25,01,09,12.40
2016,05,25,01,10,12.40
2016,05,25,01,11,12.40
2016,05,25,01,12,12.40
2016,05,25,01,13,12.40
2016,05,25,01,14,12.40
2016,05,25,01,15,12.40
2016,05,25,01,16,12.40
2016,05,25,01,17,12.40
2016,05,25,01,18,12.40
2016,05,25,01,19,12.40
2016,05,25,01,20,12.40
2016,05,25,01,21,12.40
2016,05,25,01,22,12.40
2016,05,25,01,23,12.40
2016,05,25,01,24,12.40
2016,05,25,01,25,12.40
2016,05,25,01,26,12.40
2016,05,25,01,27,12.40
2016,05,25,01,28,12.40
2016,05,25,01,29,12.40
2016,05,25,01,30,12.40
2016,05,25,01,31,12.40
2016,05,25,01,32,12.40
2016,05,25,01,33,12.40
2016,05,25,01,34,12.40
2016,05,25,01,35,12.40
2016,05,25,01,36,12.40
2016,05,25,01,37,12.40
2016,05,25,01,38,12.40
2016,05,25,01,39,12.40
2016,05,25,01,40,12.40
2016,05,25,01,41,12.50
2016,05,25,01,42,12.50
2016,05,25,01,43,12.50
2016,05,25,01,44,12.50
2016,05,25,01,45,12.50
2016,05,25,01,46,12.50
2016,05,25,01,47,12.60
2016,05,25,01,48,12.60
2016,05,25,01,49,12.60
2016,05,25,01,50,12.60
2016,05,25,01,51,12.60
2016,05,25,01,52,12.60
2016,05,25,01,53,12.60
2016,05,25,01,54,12.60
2016,05,25,01,55,12.60
2016,05,25,01,56,12.60
2016,05,25,01,57,12.60
2016,05,25,01,58,12.60
2016,05,25,01,59,12.60
2016,05,25,02,00,12.60
2016,05,25,02,01,12.60
2016,05,25,02,02,12.70
2016,05,25,02,03,12.70
2016,05,25,02,04,12.70
2016,05,25,02,05,12.70
2016,05,25,02,06,12.70
2016,05,25,02,07,12.70
2016,05,25,02,08,12.70
2016,05,25,02,09,12.70
2016,05,25,02,10,12.70
2016,05,25,02,11,12.70
2016,05,25,02,12,12.70
2016,05,25,02,13,12.70
2016,05,25,02,14,12.70
2016,05,25,02,15,12.70
2016,05,25,02,16,12.70
2016,05,25,02,17,12.70
2016,05,25,02,18,12.70
2016,05,25,02,19,12.70
2016,05,25,02,20,12.70
2016,05,25,02,21,12.70
2016,05,25,02,22,12.70
2016,05,25,02,23,12.70
2016,05,25,02,24,12.70
2016,05,25,02,25,12.70
2016,05,25,02,26,12.70
2016,05,25,02,27,12.70
2016,05,25,02,28,12.70
2016,05,25,02,29,12.80
2016,05,25,02,30,12.80
2016,05,25,02,31,12.80
2016,05,25,02,32,12.80
2016,05,25,02,33,12.80
2016,05,25,02,34,12.80
2016,05,25,02,35,12.80
2016,05,25,02,36,12.80
2016,05,25,02,37,12.80
2016,05,25,02,38,12.80
2016,05,25,02,39,12.80
2016,05,25,02,40,12.80
2016,05,25,02,41,12.80
2016,05,25,02,42,12.80
2016,05,25,02,43,12.80
2016,05,25,02,44,12.80
2016,05,25,02,45,12.80
2016,05,25,02,46,12.80
2016,05,25,02,47,12.80
2016,05,25,02,48,12.80
2016,05,25,02,49,12.80
2016,05,25,02,50,12.80
2016,05,25,02,51,12.80
2016,05,25,02,52,12.80
2016,05,25,02,53,12.80
2016,05,25,02,54,12.80
2016,05,25,02,55,12.80
2016,05,25,02,56,12.80
2016,05,25,02,57,12.80
2016,05,25,02,58,12.80
2016,05,25,02,59,12.80
2016,05,25,03,00,12.80
2016,05,25,03,01,12.80
2016,05,25,03,02,12.80
2016,05,25,03,06,12.80
2016,05,25,03,07,12.80
2016,05,25,03,08,12.80
2016,05,25,03,09,12.80
2016,05,25,03,10,12.80
2016,05,25,03,11,12.80
2016,05,25,03,12,12.80
2016,05,25,03,13,12.80
2016,05,25,03,14,12.80
2016,05,25,03,15,12.80
2016,05,25,03,16,12.80
2016,05,25,03,17,12.80
2016,05,25,03,18,12.90
2016,05,25,03,19,12.90
2016,05,25,03,20,12.90
2016,05,25,03,21,12.90
2016,05,25,03,22,12.90
2016,05,25,03,23,13.00
2016,05,25,03,24,13.00
2016,05,25,03,25,13.00
2016,05,25,03,26,13.00
2016,05,25,03,27,13.00
2016,05,25,03,28,13.00
2016,05,25,03,29,13.00
2016,05,25,03,30,13.00
2016,05,25,03,31,13.10
2016,05,25,03,32,13.10
2016,05,25,03,33,13.10
2016,05,25,03,34,13.10
2016,05,25,03,35,13.10
2016,05,25,03,36,13.10
2016,05,25,03,37,13.10
2016,05,25,03,38,13.10
2016,05,25,03,39,13.10
2016,05,25,03,40,13.10
2016,05,25,03,41,13.10
2016,05,25,03,42,13.10
2016,05,25,03,43,13.20
2016,05,25,03,44,13.20
2016,05,25,03,45,13.20
2016,05,25,03,46,13.20
2016,05,25,03,47,13.20
2016,05,25,03,48,13.20
2016,05,25,03,49,13.20
2016,05,25,03,50,13.20
2016,05,25,03,51,13.20
2016,05,25,03,52,13.20
2016,05,25,03,53,13.20
2016,05,25,03,54,13.20
2016,05,25,03,55,13.20
2016,05,25,03,56,13.20
2016,05,25,03,57,13.20
2016,05,25,03,58,13.20
2016,05,25,03,59,13.20
2016,05,25,04,00,13.20
2016,05,25,04,01,13.20
2016,05,25,04,02,13.20
2016,05,25,04,03,13.20
2016,05,25,04,04,13.20
2016,05,25,04,05,13.20
2016,05,25,04,06,13.20
2016,05,25,04,07,13.20
2016,05,25,04,08,13.20
2016,05,25,04,09,13.20
2016,05,25,04,10,13.20
2016,05,25,04,11,13.20
2016,05,25,04,12,13.20
2016,05,25,04,13,13.30
2016,05,25,04,14,13.30
2016,05,25,04,15,13.30
2016,05,25,04,16,13.30
2016,05,25,04,17,13.30
2016,05,25,04,18,13.30
2016,05,25,04,19,13.30
2016,05,25,04,20,13.30
2016,05,25,04,21,13.30
2016,05,25,04,22,13.30
2016,05,25,04,23,13.30
2016,05,25,04,24,13.30
2016,05,25,04,25,13.30
2016,05,25,04,26,13.30
2016,05,25,04,27,13.30
2016,05,25,04,28,13.30
2016,05,25,04,29,13.30
2016,05,25,04,30,13.30
2016,05,25,04,31,13.30
2016,05,25,04,32,13.30
2016,05,25,04,33,13.30
2016,05,25,04,34,13.30
2016,05,25,04,35,13.30
2016,05,25,04,36,13.30
2016,05,25,04,37,13.30
2016,05,25,04,38,13.30
2016,05,25,04,39,13.20
2016,05,25,04,40,13.20
2016,05,25,04,41,13.20
2016,05,25,04,42,13.20
2016,05,25,04,43,13.20
2016,05,25,04,44,13.20
2016,05,25,04,45,13.20
2016,05,25,04,46,13.20
2016,05,25,04,47,13.20
2016,05,25,04,48,13.20
2016,05,25,04,49,13.20
2016,05,25,04,50,13.10
2016,05,25,04,51,13.10
2016,05,25,04,52,13.10
2016,05,25,04,53,13.10
2016,05,25,04,54,13.10
2016,05,25,04,55,13.10
2016,05,25,04,56,13.10
2016,05,25,04,57,13.10
2016,05,25,04,58,13.00
2016,05,25,04,59,13.00
2016,05,25,05,00,13.00
2016,05,25,05,01,12.90
2016,05,25,05,02,12.90
2016,05,25,05,03,12.90
2016,05,25,05,04,12.90
2016,05,25,05,05,12.90
2016,05,25,05,06,12.90
2016,05,25,05,07,12.90
2016,05,25,05,08,12.80
2016,05,25,05,09,12.80
2016,05,25,05,10,12.80
2016,05,25,05,11,12.80
2016,05,25,05,12,12.80
2016,05,25,05,13,12.80
2016,05,25,05,14,12.80
2016,05,25,05,15,12.70
2016,05,25,05,16,12.70
2016,05,25,05,17,12.70
2016,05,25,05,18,12.70
2016,05,25,05,19,12.70
2016,05,25,05,20,12.70
2016,05,25,05,21,12.70
2016,05,25,05,22,12.70
2016,05,25,05,23,12.60
2016,05,25,05,24,12.60
2016,05,25,05,25,12.60
2016,05,25,05,26,12.60
2016,05,25,05,27,12.50
2016,05,25,05,28,12.50
2016,05,25,05,29,12.50
2016,05,25,05,30,12.40
2016,05,25,05,31,12.40
2016,05,25,05,32,12.40
2016,05,25,05,33,12.40
2016,05,25,05,34,12.30
2016,05,25,05,35,12.30
2016,05,25,05,36,12.30
2016,05,25,05,37,12.30
2016,05,25,05,38,12.30
2016,05,25,05,39,12.20
2016,05,25,05,40,12.20
2016,05,25,05,41,12.20
2016,05,25,05,42,12.20
2016,05,25,05,43,12.20
2016,05,25,05,44,12.10
2016,05,25,05,45,12.10
2016,05,25,05,46,12.10
2016,05,25,05,47,12.10
2016,05,25,05,48,12.00
2016,05,25,05,49,12.00
2016,05,25,05,50,12.00
2016,05,25,05,51,11.90
2016,05,25,05,52,11.90
2016,05,25,05,53,11.90
2016,05,25,05,54,11.90
2016,05,25,05,55,11.90
2016,05,25,05,56,11.90
2016,05,25,05,57,11.80
2016,05,25,05,58,11.80
2016,05,25,05,59,11.80
2016,05,25,06,00,11.80
2016,05,25,06,01,11.80
2016,05,25,06,02,11.80
2016,05,25,06,03,11.80
2016,05,25,06,04,11.70
2016,05,25,06,05,11.70
2016,05,25,06,06,11.70
2016,05,25,06,07,11.70
2016,05,25,06,08,11.60
2016,05,25,06,09,11.60
2016,05,25,06,10,11.60
2016,05,25,06,11,11.60
2016,05,25,06,12,11.60
2016,05,25,06,13,11.60
2016,05,25,06,14,11.60
2016,05,25,06,15,11.60
2016,05,25,06,16,11.60
2016,05,25,06,17,11.60
2016,05,25,06,18,11.60
2016,05,25,06,19,11.60
2016,05,25,06,20,11.60
2016,05,25,06,21,11.60
2016,05,25,06,22,11.60
2016,05,25,06,23,11.60
2016,05,25,06,24,11.60
2016,05,25,06,25,11.70
2016,05,25,06,26,11.70
2016,05,25,06,27,11.70
2016,05,25,06,28,11.70
2016,05,25,06,29,11.70
2016,05,25,06,30,11.70
2016,05,25,06,31,11.80
2016,05,25,06,32,11.80
2016,05,25,06,33,11.90
2016,05,25,06,34,11.90
2016,05,25,06,35,12.00
2016,05,25,06,36,12.00
2016,05,25,06,37,12.10
2016,05,25,06,38,12.10
2016,05,25,06,39,12.20
2016,05,25,06,40,12.20
2016,05,25,06,41,12.30
2016,05,25,06,42,12.30
2016,05,25,06,43,12.30
2016,05,25,06,44,12.40
2016,05,25,06,45,12.40
2016,05,25,06,46,12.50
2016,05,25,06,47,12.50
2016,05,25,06,48,12.60
2016,05,25,06,49,12.60
2016,05,25,06,50,12.70
2016,05,25,06,51,12.70
2016,05,25,06,52,12.70
2016,05,25,06,53,12.70
2016,05,25,06,54,12.80
2016,05,25,06,55,12.80
2016,05,25,06,56,12.80
2016,05,25,06,57,12.80
2016,05,25,06,58,12.90
2016,05,25,06,59,12.90
2016,05,25,07,00,12.90
2016,05,25,07,01,13.00
2016,05,25,07,02,13.00
2016,05,25,07,03,13.00
2016,05,25,07,04,13.10
2016,05,25,07,05,13.10
2016,05,25,07,06,13.10
2016,05,25,07,07,13.10
2016,05,25,07,08,13.20
2016,05,25,07,09,13.20
2016,05,25,07,10,13.20
2016,05,25,07,11,13.20
2016,05,25,07,12,13.20
2016,05,25,07,13,13.30
2016,05,25,07,14,13.30
2016,05,25,07,15,13.30
2016,05,25,07,16,13.30
2016,05,25,07,17,13.30
2016,05,25,07,18,13.30
2016,05,25,07,19,13.30
2016,05,25,07,20,13.40
2016,05,25,07,21,13.40
2016,05,25,07,22,13.40
2016,05,25,07,23,13.40
2016,05,25,07,24,13.40
2016,05,25,07,25,13.40
2016,05,25,07,26,13.40
2016,05,25,07,27,13.40
2016,05,25,07,28,13.40
2016,05,25,07,29,13.40
2016,05,25,07,30,13.40
2016,05,25,07,31,13.40
2016,05,25,07,32,13.50
2016,05,25,07,33,13.50
2016,05,25,07,34,13.60
2016,05,25,07,35,13.60
2016,05,25,07,36,13.60
2016,05,25,07,37,13.70
2016,05,25,07,38,13.70
2016,05,25,07,39,13.70
2016,05,25,07,40,13.80
2016,05,25,07,41,13.80
2016,05,25,07,42,13.80
2016,05,25,07,43,13.90
2016,05,25,07,44,13.90
2016,05,25,07,45,13.90
2016,05,25,07,46,13.90
2016,05,25,07,47,13.90
2016,05,25,07,48,14.00
2016,05,25,07,49,14.00
2016,05,25,07,50,14.10
2016,05,25,07,51,14.10
2016,05,25,07,52,14.10
2016,05,25,07,53,14.10
2016,05,25,07,54,14.20
2016,05,25,07,55,14.20
2016,05,25,07,56,14.20
2016,05,25,07,57,14.30
2016,05,25,07,58,14.30
2016,05,25,07,59,14.30
2016,05,25,08,00,14.30
2016,05,25,08,01,14.30
2016,05,25,08,02,14.30
2016,05,25,08,03,14.30
2016,05,25,08,04,14.30
2016,05,25,08,05,14.30
2016,05,25,08,06,14.30
2016,05,25,08,07,14.30
2016,05,25,08,08,14.30
2016,05,25,08,09,14.30
2016,05,25,08,10,14.30
2016,05,25,08,11,14.30
2016,05,25,08,12,14.30
2016,05,25,08,13,14.30
2016,05,25,08,14,14.30
2016,05,25,08,15,14.30
2016,05,25,08,16,14.40
2016,05,25,08,17,14.40
2016,05,25,08,18,14.40
2016,05,25,08,19,14.50
2016,05,25,08,20,14.60
2016,05,25,08,21,14.60
2016,05,25,08,22,14.60
2016,05,25,08,23,14.60
2016,05,25,08,24,14.60
2016,05,25,08,25,14.60
2016,05,25,08,26,14.60
2016,05,25,08,27,14.70
2016,05,25,08,28,14.70
2016,05,25,08,29,14.70
2016,05,25,08,30,14.70
2016,05,25,08,31,14.70
2016,05,25,08,32,14.70
2016,05,25,08,33,14.70
2016,05,25,08,34,14.70
2016,05,25,08,35,14.70
2016,05,25,08,36,14.70
2016,05,25,08,37,14.80
2016,05,25,08,38,14.80
2016,05,25,08,39,14.80
2016,05,25,08,40,14.90
2016,05,25,08,41,14.90
2016,05,25,08,42,14.90
2016,05,25,08,43,15.00
2016,05,25,08,44,15.00
2016,05,25,08,45,15.10
2016,05,25,08,46,15.20
2016,05,25,08,47,15.20
2016,05,25,08,48,15.30
2016,05,25,08,49,15.30
2016,05,25,08,50,15.30
2016,05,25,08,51,15.40
2016,05,25,08,52,15.40
2016,05,25,08,53,15.40
2016,05,25,08,54,15.50
2016,05,25,08,55,15.50
2016,05,25,08,56,15.50
2016,05,25,08,57,15.60
2016,05,25,08,58,15.70
2016,05,25,08,59,15.70
2016,05,25,09,00,15.80
2016,05,25,09,01,15.80
2016,05,25,09,02,15.90
2016,05,25,09,03,16.00
2016,05,25,09,04,16.00
2016,05,25,09,05,15.90
2016,05,25,09,06,15.80
2016,05,25,09,07,15.70
2016,05,25,09,08,15.60
2016,05,25,09,09,15.60
2016,05,25,09,10,15.50
2016,05,25,09,11,15.40
2016,05,25,09,12,15.40
2016,05,25,09,13,15.40
2016,05,25,09,14,15.40
2016,05,25,09,15,15.50
2016,05,25,09,16,15.50
2016,05,25,09,17,15.60
2016,05,25,09,18,15.70
2016,05,25,09,19,15.70
2016,05,25,09,20,15.80
2016,05,25,09,21,15.90
2016,05,25,09,22,16.00
2016,05,25,09,23,16.00
2016,05,25,09,24,16.10
2016,05,25,09,25,16.20
2016,05,25,09,26,16.30
2016,05,25,09,27,16.40
2016,05,25,09,28,16.50
2016,05,25,09,29,16.50
2016,05,25,09,30,16.50
2016,05,25,09,31,16.50
2016,05,25,09,32,16.60
2016,05,25,09,33,16.60
2016,05,25,09,34,16.60
2016,05,25,09,35,16.60
2016,05,25,09,36,16.60
2016,05,25,09,37,16.60
2016,05,25,09,38,16.70
2016,05,25,09,39,16.70
2016,05,25,09,40,16.80
2016,05,25,09,41,16.80
2016,05,25,09,42,16.90
2016,05,25,09,43,16.90
2016,05,25,09,44,17.00
2016,05,25,09,45,17.10
2016,05,25,09,46,17.10
2016,05,25,09,47,17.10
2016,05,25,09,48,17.10
2016,05,25,09,49,17.20
2016,05,25,09,50,17.20
2016,05,25,09,51,17.30
2016,05,25,09,52,17.30
2016,05,25,09,53,17.30
2016,05,25,09,54,17.30
2016,05,25,09,55,17.30
2016,05,25,09,56,17.30
2016,05,25,09,57,17.30
2016,05,25,09,58,17.30
2016,05,25,09,59,17.30
2016,05,25,10,00,17.30
2016,05,25,10,01,17.30
2016,05,25,10,02,17.30
2016,05,25,10,03,17.30
2016,05,25,10,04,17.20
2016,05,25,10,05,17.30
2016,05,25,10,06,17.30
2016,05,25,10,07,17.40
2016,05,25,10,08,17.40
2016,05,25,10,09,17.40
2016,05,25,10,10,17.40
2016,05,25,10,11,17.40
2016,05,25,10,12,17.40
2016,05,25,10,13,17.40
2016,05,25,10,14,17.40
2016,05,25,10,15,17.40
2016,05,25,10,16,17.40
2016,05,25,10,17,17.40
2016,05,25,10,18,17.50
2016,05,25,10,19,17.60
2016,05,25,10,20,17.60
2016,05,25,10,21,17.70
2016,05,25,10,22,17.80
2016,05,25,10,23,18.00
2016,05,25,10,24,18.20
2016,05,25,10,25,18.20
2016,05,25,10,26,18.30
2016,05,25,10,27,18.30
2016,05,25,10,28,18.30
2016,05,25,10,29,18.30
2016,05,25,10,30,18.30
2016,05,25,10,31,18.20
2016,05,25,10,32,18.20
2016,05,25,10,33,18.10
2016,05,25,10,34,18.00
2016,05,25,10,35,17.80
2016,05,25,10,36,17.70
2016,05,25,10,37,17.70
2016,05,25,10,38,17.70
2016,05,25,10,39,17.70
2016,05,25,10,40,17.70
2016,05,25,10,41,17.60
2016,05,25,10,42,17.60
2016,05,25,10,43,17.70
2016,05,25,10,44,17.70
2016,05,25,10,45,17.70
2016,05,25,10,46,17.70
2016,05,25,10,47,17.80
2016,05,25,10,48,17.80
2016,05,25,10,49,17.80
2016,05,25,10,50,17.80
2016,05,25,10,51,17.90
2016,05,25,10,52,17.80
2016,05,25,10,53,17.80
2016,05,25,10,54,17.70
2016,05,25,10,55,17.70
2016,05,25,10,56,17.70
2016,05,25,10,57,17.70
2016,05,25,10,58,17.60
2016,05,25,10,59,17.60
2016,05,25,11,00,17.60
2016,05,25,11,01,17.70
2016,05,25,11,02,17.80
2016,05,25,11,03,17.90
2016,05,25,11,04,18.00
2016,05,25,11,05,18.00
2016,05,25,11,06,18.00
2016,05,25,11,07,18.00
2016,05,25,11,08,18.10
2016,05,25,11,09,18.10
2016,05,25,11,10,18.10
2016,05,25,11,11,18.00
2016,05,25,11,12,17.90
2016,05,25,11,13,18.00
2016,05,25,11,14,17.90
2016,05,25,11,15,17.90
2016,05,25,11,16,18.00
2016,05,25,11,17,18.10
2016,05,25,11,18,18.20
2016,05,25,11,19,18.20
2016,05,25,11,20,18.20
2016,05,25,11,21,18.30
2016,05,25,11,22,18.30
2016,05,25,11,23,18.40
2016,05,25,11,24,18.50
2016,05,25,11,25,18.50
2016,05,25,11,26,18.40
2016,05,25,11,27,18.30
2016,05,25,11,28,18.30
2016,05,25,11,29,18.30
2016,05,25,11,30,18.30
2016,05,25,11,31,18.30
2016,05,25,11,32,18.30
2016,05,25,11,33,18.40
2016,05,25,11,34,18.50
2016,05,25,11,35,18.50
2016,05,25,11,36,18.60
2016,05,25,11,37,18.70
2016,05,25,11,38,18.80
2016,05,25,11,39,18.90
2016,05,25,11,40,18.90
2016,05,25,11,41,18.90
2016,05,25,11,42,18.90
2016,05,25,11,43,18.90
2016,05,25,11,44,19.00
2016,05,25,11,45,19.00
2016,05,25,11,46,19.00
2016,05,25,11,47,19.00
2016,05,25,11,48,19.00
2016,05,25,11,49,19.00
2016,05,25,11,50,19.00
2016,05,25,11,51,19.10
2016,05,25,11,52,19.10
2016,05,25,11,53,19.20
2016,05,25,11,54,19.20
2016,05,25,11,55,19.20
2016,05,25,11,56,19.20
2016,05,25,11,57,19.10
2016,05,25,11,58,19.00
2016,05,25,11,59,18.90
2016,05,25,12,00,18.80
2016,05,25,12,01,18.80
2016,05,25,12,02,18.80
2016,05,25,12,03,18.80
2016,05,25,12,04,18.80
2016,05,25,12,05,18.80
2016,05,25,12,06,18.80
2016,05,25,12,07,18.80
2016,05,25,12,08,18.80
2016,05,25,12,09,18.80
2016,05,25,12,10,18.90
2016,05,25,12,11,19.00
2016,05,25,12,12,19.00
2016,05,25,12,13,19.10
2016,05,25,12,14,19.10
2016,05,25,12,15,19.20
2016,05,25,12,16,19.30
2016,05,25,12,17,19.30
2016,05,25,12,18,19.30
2016,05,25,12,19,19.20
2016,05,25,12,20,19.20
2016,05,25,12,21,19.10
2016,05,25,12,22,19.00
2016,05,25,12,23,18.90
2016,05,25,12,24,18.80
2016,05,25,12,25,18.80
2016,05,25,12,26,18.80
2016,05,25,12,27,18.90
2016,05,25,12,28,18.90
2016,05,25,12,29,19.00
2016,05,25,12,30,19.10
2016,05,25,12,31,19.10
2016,05,25,12,32,19.20
2016,05,25,12,33,19.20
2016,05,25,12,34,19.20
2016,05,25,12,35,19.20
2016,05,25,12,36,19.20
2016,05,25,12,37,19.20
2016,05,25,12,38,19.20
2016,05,25,12,39,19.30
2016,05,25,12,40,19.40
2016,05,25,12,41,19.40
2016,05,25,12,42,19.40
2016,05,25,12,43,19.30
2016,05,25,12,44,19.40
2016,05,25,12,45,19.40
2016,05,25,12,46,19.40
2016,05,25,12,47,19.50
2016,05,25,12,48,19.60
2016,05,25,12,49,19.50
2016,05,25,12,50,19.40
2016,05,25,12,51,19.40
2016,05,25,12,52,19.30
2016,05,25,12,53,19.30
2016,05,25,12,54,19.30
2016,05,25,12,55,19.40
2016,05,25,12,56,19.50
2016,05,25,12,57,19.60
2016,05,25,12,58,19.60
2016,05,25,12,59,19.70
2016,05,25,13,00,19.70
2016,05,25,13,01,19.60
2016,05,25,13,02,19.60
2016,05,25,13,03,19.50
2016,05,25,13,04,19.50
2016,05,25,13,05,19.50
2016,05,25,13,06,19.50
2016,05,25,13,07,19.50
2016,05,25,13,08,19.60
2016,05,25,13,09,19.70
2016,05,25,13,10,19.90
2016,05,25,13,11,20.00
2016,05,25,13,12,20.10
2016,05,25,13,13,20.20
2016,05,25,13,14,20.30
2016,05,25,13,15,20.30
2016,05,25,13,16,20.20
2016,05,25,13,17,20.20
2016,05,25,13,18,20.10
2016,05,25,13,19,20.00
2016,05,25,13,20,19.90
2016,05,25,13,21,19.80
2016,05,25,13,22,19.90
2016,05,25,13,23,19.90
2016,05,25,13,24,19.90
2016,05,25,13,25,19.90
2016,05,25,13,26,20.00
2016,05,25,13,27,20.00
2016,05,25,13,28,20.10
2016,05,25,13,29,20.10
2016,05,25,13,30,20.20
2016,05,25,13,31,20.20
2016,05,25,13,32,20.20
2016,05,25,13,33,20.20
2016,05,25,13,34,20.20
2016,05,25,13,35,20.20
2016,05,25,13,36,20.10
2016,05,25,13,37,20.20
2016,05,25,13,38,20.20
2016,05,25,13,39,20.10
2016,05,25,13,40,20.10
2016,05,25,13,41,20.10
2016,05,25,13,42,20.20
2016,05,25,13,43,20.20
2016,05,25,13,44,20.20
2016,05,25,13,45,20.20
2016,05,25,13,46,20.20
2016,05,25,13,47,20.20
2016,05,25,13,48,20.30
2016,05,25,13,49,20.20
2016,05,25,13,50,20.10
2016,05,25,13,51,20.10
2016,05,25,13,52,20.10
2016,05,25,13,53,20.20
2016,05,25,13,54,20.30
2016,05,25,13,55,20.40
2016,05,25,13,56,20.40
2016,05,25,13,57,20.40
2016,05,25,13,58,20.40
2016,05,25,13,59,20.50
2016,05,25,14,00,20.60
2016,05,25,14,01,20.70
2016,05,25,14,02,20.70
2016,05,25,14,03,20.70
2016,05,25,14,04,20.70
2016,05,25,14,05,20.60
2016,05,25,14,06,20.40
2016,05,25,14,07,20.20
2016,05,25,14,08,19.90
2016,05,25,14,09,19.80
2016,05,25,14,10,19.70
2016,05,25,14,11,19.50
2016,05,25,14,12,19.50
2016,05,25,14,13,19.60
2016,05,25,14,14,19.70
2016,05,25,14,15,19.70
2016,05,25,14,16,19.70
2016,05,25,14,17,19.60
2016,05,25,14,18,19.60
2016,05,25,14,19,19.40
2016,05,25,14,20,19.30
2016,05,25,14,21,19.10
2016,05,25,14,22,19.10
2016,05,25,14,23,19.20
2016,05,25,14,24,19.20
2016,05,25,14,25,19.30
2016,05,25,14,26,19.30
2016,05,25,14,27,19.40
2016,05,25,14,28,19.50
2016,05,25,14,29,19.60
2016,05,25,14,30,19.70
2016,05,25,14,31,19.90
2016,05,25,14,32,20.20
2016,05,25,14,33,20.40
2016,05,25,14,34,20.60
2016,05,25,14,35,20.70
2016,05,25,14,36,20.80
2016,05,25,14,37,20.80
2016,05,25,14,38,20.80
2016,05,25,14,39,20.90
2016,05,25,14,40,20.90
2016,05,25,14,41,21.00
2016,05,25,14,42,21.00
2016,05,25,14,43,21.10
2016,05,25,14,44,21.20
2016,05,25,14,45,21.30
2016,05,25,14,46,21.30
2016,05,25,14,47,21.20
2016,05,25,14,48,21.00
2016,05,25,14,49,20.90
2016,05,25,14,50,20.70
2016,05,25,14,51,20.50
2016,05,25,14,52,20.30
2016,05,25,14,53,20.20
2016,05,25,14,54,20.10
2016,05,25,14,55,20.00
2016,05,25,14,56,20.00
2016,05,25,14,57,19.90
2016,05,25,14,58,19.80
2016,05,25,14,59,19.80
2016,05,25,15,00,19.80
2016,05,25,15,01,19.90
2016,05,25,15,02,19.90
2016,05,25,15,03,19.80
2016,05,25,15,04,19.60
2016,05,25,15,05,19.30
2016,05,25,15,06,19.10
2016,05,25,15,07,18.90
2016,05,25,15,08,18.80
2016,05,25,15,09,18.80
2016,05,25,15,10,18.70
2016,05,25,15,11,18.80
2016,05,25,15,12,18.80
2016,05,25,15,13,18.80
2016,05,25,15,14,18.80
2016,05,25,15,15,19.00
2016,05,25,15,16,19.20
2016,05,25,15,17,19.30
2016,05,25,15,18,19.50
2016,05,25,15,19,19.50
2016,05,25,15,20,19.30
2016,05,25,15,21,19.10
2016,05,25,15,22,19.00
2016,05,25,15,23,18.80
2016,05,25,15,24,18.70
2016,05,25,15,25,18.70
2016,05,25,15,26,18.80
2016,05,25,15,27,18.90
2016,05,25,15,28,19.10
2016,05,25,15,29,19.20
2016,05,25,15,30,19.40
2016,05,25,15,31,19.50
2016,05,25,15,32,19.70
2016,05,25,15,33,19.80
2016,05,25,15,34,19.90
2016,05,25,15,35,19.90
2016,05,25,15,36,20.00
2016,05,25,15,37,20.00
2016,05,25,15,38,20.10
2016,05,25,15,39,20.00
2016,05,25,15,40,20.00
2016,05,25,15,41,20.10
2016,05,25,15,42,20.20
2016,05,25,15,43,20.40
2016,05,25,15,44,20.50
2016,05,25,15,45,20.60
2016,05,25,15,46,20.70
2016,05,25,15,47,20.70
2016,05,25,15,48,20.70
2016,05,25,15,49,20.70
2016,05,25,15,50,20.80
2016,05,25,15,51,20.60
2016,05,25,15,52,20.40
2016,05,25,15,53,20.10
2016,05,25,15,54,20.10
2016,05,25,15,55,20.10
2016,05,25,15,56,20.10
2016,05,25,15,57,20.00
2016,05,25,15,58,20.00
2016,05,25,15,59,20.00
2016,05,25,16,00,20.00
2016,05,25,16,01,20.00
2016,05,25,16,02,19.90
2016,05,25,16,03,19.90
2016,05,25,16,04,20.00
2016,05,25,16,05,20.10
2016,05,25,16,06,20.10
2016,05,25,16,07,20.20
2016,05,25,16,08,20.30
2016,05,25,16,09,20.40
2016,05,25,16,10,20.40
2016,05,25,16,11,20.50
2016,05,25,16,12,20.50
2016,05,25,16,13,20.40
2016,05,25,16,14,20.20
2016,05,25,16,15,20.10
2016,05,25,16,16,20.20
2016,05,25,16,17,20.40
2016,05,25,16,18,20.50
2016,05,25,16,19,20.70
2016,05,25,16,20,20.70
2016,05,25,16,21,20.60
2016,05,25,16,22,20.50
2016,05,25,16,23,20.50
2016,05,25,16,24,20.40
2016,05,25,16,25,20.30
2016,05,25,16,26,20.30
2016,05,25,16,27,20.30
2016,05,25,16,28,20.40
2016,05,25,16,29,20.40
2016,05,25,16,30,20.40
2016,05,25,16,31,20.40
2016,05,25,16,32,20.30
2016,05,25,16,33,20.40
2016,05,25,16,34,20.30
2016,05,25,16,35,20.20
2016,05,25,16,36,20.10
2016,05,25,16,37,20.10
2016,05,25,16,38,20.20
2016,05,25,16,39,20.20
2016,05,25,16,40,20.30
2016,05,25,16,41,20.40
2016,05,25,16,42,20.50
2016,05,25,16,43,20.50
2016,05,25,16,44,20.60
2016,05,25,16,45,20.50
2016,05,25,16,46,20.50
2016,05,25,16,47,20.50
2016,05,25,16,48,20.50
2016,05,25,16,49,20.50
2016,05,25,16,50,20.50
2016,05,25,16,51,20.50
2016,05,25,16,52,20.50
2016,05,25,16,53,20.50
2016,05,25,16,54,20.40
2016,05,25,16,55,20.40
2016,05,25,16,56,20.30
2016,05,25,16,57,20.00
2016,05,25,16,58,19.60
2016,05,25,16,59,19.40
2016,05,25,17,00,19.30
2016,05,25,17,01,19.30
2016,05,25,17,02,19.20
2016,05,25,17,03,19.20
2016,05,25,17,04,19.10
2016,05,25,17,05,19.00
2016,05,25,17,06,19.00
2016,05,25,17,07,19.20
2016,05,25,17,08,19.30
2016,05,25,17,09,19.40
2016,05,25,17,10,19.50
2016,05,25,17,11,19.70
2016,05,25,17,12,19.80
2016,05,25,17,13,20.00
2016,05,25,17,14,20.00
2016,05,25,17,15,20.00
2016,05,25,17,16,19.70
2016,05,25,17,17,19.50
2016,05,25,17,18,19.40
2016,05,25,17,19,19.30
2016,05,25,17,20,19.40
2016,05,25,17,21,19.40
2016,05,25,17,22,19.40